This demonstration page uses our WeatherBlox Daily Observations layout. Learn more.

Left ArrowRight Arrow

38.80484, -77.04692

Hourly Observations for November 16, 2020

Temp ( °F °C ) Dew Point ( °F °C ) Humidity (%) Winds ( mph kmh ) Pressure ( in mb ) Visibility ( mi km ) Precip ( " mm )
12:52 am 00:52 Clear 55 12.8 34 1.1 45 45 NW 12 19 29.94 1014 10 16.0934 0 0
1:52 am 01:52 Clear 53 11.7 31 -0.6 43 43 WNW 10 17 29.96 1015 10 16.0934 0 0
2:52 am 02:52 Clear 51 10.6 32 0 48 48 W 7 11 29.98 1015 10 16.0934 0 0
3:52 am 03:52 Clear 50 10 31 -0.6 48 48 WNW 8 13 30 1016 10 16.0934 0 0
4:52 am 04:52 Mostly Clear 52 11.1 26 -3.3 37 37 WNW 18 30 30.01 1016 10 16.0934 0 0
5:52 am 05:52 Mostly Clear 51 10.6 26 -3.3 38 38 WNW 16 26 30.02 1017 10 16.0934 0 0
6:52 am 06:52 Mostly Clear 50 10 26 -3.3 39 39 VRB 7 11 30.03 1017 10 16.0934 0 0
7:52 am 07:52 Sunny 51 10.6 27 -2.8 39 39 WNW 9 15 30.05 1018 10 16.0934 0 0
8:52 am 08:52 Sunny 53 11.7 28 -2.2 38 38 WNW 13 20 30.06 1018 10 16.0934 0 0
9:52 am 09:52 Sunny 55 12.8 28 -2.2 35 35 W 13 20 30.08 1019 10 16.0934 0 0
10:52 am 10:52 Sunny 57 13.9 26 -3.3 30 30 W 15 24 30.06 1018 10 16.0934 0 0
11:52 am 11:52 Sunny 58 14.4 24 -4.4 27 27 W 15 24 30.06 1018 10 16.0934 0 0
12:52 pm 12:52 Sunny 61 16.1 25 -3.9 25 25 W 9 15 30.04 1017 10 16.0934 0 0
1:52 pm 13:52 Sunny 62 16.7 21 -6.1 21 21 W 14 22 30.02 1017 10 16.0934 0 0
2:52 pm 14:52 Sunny 62 16.7 23 -5 22 22 W 16 26 30.01 1016 10 16.0934 0 0
3:52 pm 15:52 Sunny 61 16.1 18 -7.8 19 19 WNW 13 20 30.01 1016 10 16.0934 0 0
4:52 pm 16:52 Sunny 58 14.4 16 -8.9 19 19 NW 8 13 30.02 1017 10 16.0934 0 0
5:52 pm 17:52 Clear 54 12.2 19 -7.2 25 25 NW 9 15 30.04 1017 10 16.0934 0 0
6:52 pm 18:52 Clear 54 12.2 18 -7.8 24 24 WNW 6 9 30.05 1018 10 16.0934 0 0
7:52 pm 19:52 Clear 52 11.1 18 -7.8 26 26 WNW 7 11 30.06 1018 10 16.0934 0 0
8:52 pm 20:52 Clear 52 11.1 18 -7.8 26 26 NW 12 19 30.06 1018 10 16.0934 0 0
9:52 pm 21:52 Clear 52 11.1 17 -8.3 25 25 NW 8 13 30.07 1018 10 16.0934 0 0
10:52 pm 22:52 Clear 52 11.1 18 -7.8 26 26 WNW 12 19 30.07 1018 10 16.0934 0 0
11:52 pm 23:52 Clear 51 10.6 18 -7.8 27 27 WNW 6 9 30.07 1018 10 16.0934 0 0

Powered by AerisWeather